Voltar ao catálogo

COSMOS 2251 DEB

AtivoLEO
NORAD 37094·DEBRIS·🇷🇺 Russia

Lançado Jun 16, 1993 de Plesetsk Cosmodrome

Loading…

Próximas Passagens (próximas 24 horas)

TLE

AtualizadoSource: Space-Track

Época: Sep 13, 2026, 13:36 UTC

1 37094U 93036BFQ 26256.56728591  .00001227  00000-0  38923-3 0  9998
2 37094  74.1099 336.6888 0082571 231.7370 127.6336 14.39144192884582

Acompanhe COSMOS 2251 DEB em tempo real com AllMySat

Download on the App Store